Overview Statistics Trail Chart Weather Telemetry Raw packets
 

This is the latest recevied weather packets stored in our database for station/object NI4CE-10. If no packets are shown the sender has not sent any weather packets the latest 10 day(s).

<< 103 104 105 106 107 108 109 >>
Time Temp. Humidity Pressure Rain* Wind** Luminosity Snow
1788118693 26.11° C 100% 1018.5 hPa 2.03 mm - - -
1788118393 26.11° C 100% 1018.1 hPa 2.03 mm - - -
1788118093 28.33° C 100% 1017.9 hPa 2.03 mm - - -
1788117793 30° C 100% 1017.5 hPa 2.03 mm - - -
1788117493 30.56° C 100% 1017.5 hPa 0.25 mm - - -
1788117193 33.33° C 100% 1017.3 hPa 0 mm - - -
1788117096 33.33° C 100% 1017.3 hPa 0 mm - - -
1788116893 33.33° C 100% 1017.3 hPa 0 mm - - -
1788116593 34.44° C 100% 1017.4 hPa 0 mm - - -
1788116293 34.44° C 100% 1017.5 hPa 0 mm - - -
1788115993 34.44° C 100% 1017.6 hPa 0 mm - - -
1788115693 34.44° C 100% 1017.6 hPa 0 mm - - -
1788115399 33.33° C 100% 1017.6 hPa 0 mm - - -
1788115093 33.33° C 100% 1017.6 hPa 0 mm - - -
1788114793 33.89° C 100% 1017.7 hPa 0 mm - - -
1788114493 33.89° C 100% 1017.7 hPa 0 mm - - -
1788114193 34.44° C 100% 1017.8 hPa 0 mm - - -
1788113893 36.11° C 100% 1017.8 hPa 0 mm - - -
1788113593 39.44° C 100% 1017.9 hPa 0 mm - - -
1788113293 38.33° C 100% 1018 hPa 0 mm - - -
1788112993 42.78° C 100% 1018.2 hPa 0 mm - - -
1788112693 37.78° C 100% 1018.3 hPa 0 mm - - -
1788112393 38.89° C 100% 1018.3 hPa 0 mm - - -
1788112093 37.22° C 100% 1018.6 hPa 0 mm - - -
1788111793 42.22° C 100% 1018.7 hPa 0 mm - - -

* Rain latest hour (hover to see other rain measurements)
** Current wind speed in m/s (hover to see current wind gust speed)